Time,TemperatureF,DewpointF,PressureIn,WindDirection,WindDirectionDegrees,WindSpeedMPH,WindSpeedGustMPH,Humidity,HourlyPrecipIn,Conditions,Clouds,dailyrainin,SoftwareType,DateUTC
2013-06-14 00:00:00,70.5,69.6,29.42,WSW,258,4.0,13.0,97,0.00,,---,0.63,VWS V14.01,2013-06-14 04:00:00,
2013-06-14 00:01:00,67.2,65.7,29.44,WSW,248,7.0,7.0,95,0.00,,---,0.00,VWS V14.01,2013-06-14 04:01:00,
2013-06-14 00:06:00,67.0,65.5,29.44,West,262,4.0,10.0,95,0.00,,---,0.00,VWS V14.01,2013-06-14 04:06:00,
2013-06-14 00:11:00,66.7,65.2,29.44,WSW,255,5.0,11.0,95,0.00,,---,0.00,VWS V14.01,2013-06-14 04:11:00,
2013-06-14 00:16:00,66.6,65.1,29.44,WNW,288,0.0,11.0,95,0.00,,---,0.00,VWS V14.01,2013-06-14 04:16:00,
2013-06-14 00:21:00,66.5,65.0,29.45,WSW,247,0.0,11.0,95,0.00,,---,0.00,VWS V14.01,2013-06-14 04:21:00,
2013-06-14 00:26:00,66.4,64.9,29.45,WSW,257,7.0,11.0,95,0.00,,---,0.00,VWS V14.01,2013-06-14 04:26:00,
2013-06-14 00:30:00,69.3,68.1,29.43,West,271,2.0,12.0,96,0.00,,---,0.63,VWS V14.01,2013-06-14 04:30:00,
2013-06-14 00:31:00,66.3,64.8,29.45,West,265,2.0,5.0,95,0.00,,---,0.00,VWS V14.01,2013-06-14 04:31:00,
2013-06-14 00:36:00,66.2,64.7,29.45,West,269,1.0,9.0,95,0.00,,---,0.00,VWS V14.01,2013-06-14 04:36:00,
2013-06-14 00:41:00,66.1,64.6,29.45,West,270,1.0,9.0,95,0.00,,---,0.00,VWS V14.01,2013-06-14 04:41:00,
2013-06-14 00:46:00,66.1,64.6,29.45,NW,309,1.0,9.0,95,0.00,,---,0.00,VWS V14.01,2013-06-14 04:46:00,
2013-06-14 00:51:00,66.0,64.5,29.45,NNW,333,2.0,9.0,95,0.00,,---,0.00,VWS V14.01,2013-06-14 04:51:00,
2013-06-14 00:56:00,66.0,64.5,29.45,West,276,0.0,9.0,95,0.00,,---,0.00,VWS V14.01,2013-06-14 04:56:00,
2013-06-14 01:00:00,67.2,65.7,29.44,NNW,332,7.0,13.0,95,0.00,,---,0.63,VWS V14.01,2013-06-14 05:00:00,
2013-06-14 01:01:00,65.9,64.4,29.45,West,267,5.0,5.0,95,0.00,,---,0.00,VWS V14.01,2013-06-14 05:01:00,
2013-06-14 01:06:00,65.9,64.4,29.45,WNW,298,6.0,12.0,95,0.00,,---,0.00,VWS V14.01,2013-06-14 05:06:00,
2013-06-14 01:11:00,65.8,64.3,29.45,West,265,0.0,12.0,95,0.00,,---,0.00,VWS V14.01,2013-06-14 05:11:00,
2013-06-14 01:16:00,65.7,64.2,29.45,NW,309,2.0,12.0,95,0.00,,---,0.00,VWS V14.01,2013-06-14 05:16:00,
2013-06-14 01:21:00,65.6,64.1,29.45,WNW,300,4.0,12.0,95,0.00,,---,0.00,VWS V14.01,2013-06-14 05:21:00,
2013-06-14 01:26:00,65.6,64.1,29.45,NW,306,2.0,12.0,95,0.00,,---,0.00,VWS V14.01,2013-06-14 05:26:00,
2013-06-14 01:30:00,66.3,64.8,29.45,West,269,0.0,11.0,95,0.00,,---,0.00,VWS V14.01,2013-06-14 05:30:00,
2013-06-14 01:31:00,65.5,64.0,29.45,WSW,257,0.0,5.0,95,0.00,,---,0.00,VWS V14.01,2013-06-14 05:31:00,
2013-06-14 01:36:00,65.4,63.9,29.46,WSW,243,5.0,11.0,95,0.00,,---,0.00,VWS V14.01,2013-06-14 05:36:00,
2013-06-14 01:40:00,65.4,63.9,29.46,WNW,290,2.0,11.0,95,0.00,,---,0.00,VWS V14.01,2013-06-14 05:40:00,
2013-06-14 01:45:00,65.4,63.9,29.46,NNE,23,0.0,11.0,95,0.00,,---,0.00,VWS V14.01,2013-06-14 05:45:00,
2013-06-14 01:50:00,65.3,63.8,29.46,West,259,2.0,11.0,95,0.00,,---,0.00,VWS V14.01,2013-06-14 05:50:00,
2013-06-14 01:55:00,65.3,63.8,29.47,NNE,15,4.0,11.0,95,0.00,,---,0.00,VWS V14.01,2013-06-14 05:55:00,
2013-06-14 02:00:00,64.8,63.3,29.48,North,5,4.0,5.0,95,0.00,,---,0.00,VWS V14.01,2013-06-14 06:00:00,
2013-06-14 02:05:00,64.1,62.3,29.48,North,5,5.0,13.0,94,0.00,,---,0.00,VWS V14.01,2013-06-14 06:05:00,
2013-06-14 02:10:00,63.9,62.1,29.49,NNE,24,6.0,13.0,94,0.00,,---,0.00,VWS V14.01,2013-06-14 06:10:00,
2013-06-14 02:15:00,63.3,61.5,29.49,NW,316,6.0,13.0,94,0.00,,---,0.00,VWS V14.01,2013-06-14 06:15:00,
2013-06-14 02:20:00,62.8,61.0,29.49,NW,326,9.0,13.0,94,0.00,,---,0.00,VWS V14.01,2013-06-14 06:20:00,
2013-06-14 02:25:00,62.4,60.7,29.49,NNW,329,4.0,17.0,94,0.00,,---,0.00,VWS V14.01,2013-06-14 06:25:00,
2013-06-14 02:30:00,61.9,60.2,29.50,NE,38,4.0,10.0,94,0.00,,---,0.00,VWS V14.01,2013-06-14 06:30:00,
2013-06-14 02:35:00,61.6,59.9,29.50,NNE,17,3.0,10.0,94,0.00,,---,0.00,VWS V14.01,2013-06-14 06:35:00,
2013-06-14 02:40:00,61.3,59.6,29.50,North,5,7.0,14.0,94,0.00,,---,0.00,VWS V14.01,2013-06-14 06:40:00,
2013-06-14 02:45:00,61.0,59.3,29.50,WNW,300,7.0,14.0,94,0.00,,---,0.00,VWS V14.01,2013-06-14 06:45:00,
2013-06-14 02:50:00,60.7,59.0,29.51,NNE,24,4.0,14.0,94,0.00,,---,0.00,VWS V14.01,2013-06-14 06:50:00,
2013-06-14 02:55:00,60.4,58.7,29.52,WNW,288,2.0,14.0,94,0.00,,---,0.00,VWS V14.01,2013-06-14 06:55:00,
2013-06-14 03:00:00,60.1,58.4,29.52,NW,314,10.0,10.0,94,0.00,,---,0.00,VWS V14.01,2013-06-14 07:00:00,
2013-06-14 03:05:00,59.9,58.2,29.52,NNW,344,6.0,10.0,94,0.00,,---,0.00,VWS V14.01,2013-06-14 07:05:00,
2013-06-14 03:10:00,59.7,58.0,29.52,WNW,290,5.0,10.0,94,0.00,,---,0.00,VWS V14.01,2013-06-14 07:10:00,
2013-06-14 03:15:00,59.5,57.8,29.53,WSW,257,6.0,12.0,94,0.00,,---,0.00,VWS V14.01,2013-06-14 07:15:00,
2013-06-14 03:20:00,59.4,57.4,29.53,NW,319,8.0,13.0,93,0.00,,---,0.00,VWS V14.01,2013-06-14 07:20:00,
2013-06-14 03:25:00,59.2,57.2,29.54,West,280,6.0,13.0,93,0.00,,---,0.00,VWS V14.01,2013-06-14 07:25:00,
2013-06-14 03:30:00,59.2,57.2,29.54,North,351,4.0,4.0,93,0.00,,---,0.00,VWS V14.01,2013-06-14 07:30:00,
2013-06-14 03:35:00,59.1,57.1,29.55,North,360,4.0,9.0,93,0.00,,---,0.00,VWS V14.01,2013-06-14 07:35:00,
2013-06-14 03:40:00,59.0,57.0,29.55,NNW,328,8.0,10.0,93,0.00,,---,0.00,VWS V14.01,2013-06-14 07:40:00,
2013-06-14 03:45:00,58.8,56.8,29.55,NE,56,3.0,12.0,93,0.00,,---,0.00,VWS V14.01,2013-06-14 07:45:00,
2013-06-14 03:50:00,58.7,56.7,29.55,NNE,13,6.0,19.0,93,0.00,,---,0.00,VWS V14.01,2013-06-14 07:50:00,
2013-06-14 03:55:00,58.6,56.6,29.56,NNW,343,4.0,19.0,93,0.00,,---,0.00,VWS V14.01,2013-06-14 07:55:00,
2013-06-14 04:00:00,58.4,56.1,29.55,North,5,5.0,9.0,92,0.00,,---,0.00,VWS V14.01,2013-06-14 08:00:00,
2013-06-14 04:05:00,58.3,56.0,29.56,NNW,348,10.0,12.0,92,0.00,,---,0.00,VWS V14.01,2013-06-14 08:05:00,
2013-06-14 04:10:00,58.2,55.9,29.56,NNE,28,19.0,19.0,92,0.00,,---,0.00,VWS V14.01,2013-06-14 08:10:00,
2013-06-14 04:15:00,58.1,55.5,29.57,NW,311,7.0,19.0,91,0.00,,---,0.00,VWS V14.01,2013-06-14 08:15:00,
2013-06-14 04:20:00,58.0,55.4,29.57,NE,37,2.0,19.0,91,0.00,,---,0.00,VWS V14.01,2013-06-14 08:20:00,
2013-06-14 04:25:00,57.9,55.3,29.57,NW,314,12.0,19.0,91,0.00,,---,0.00,VWS V14.01,2013-06-14 08:25:00,
2013-06-14 04:30:00,57.8,55.2,29.57,East,101,7.0,19.0,91,0.00,,---,0.00,VWS V14.01,2013-06-14 08:30:00,
2013-06-14 04:35:00,57.8,55.2,29.57,NNW,331,0.0,11.0,91,0.00,,---,0.00,VWS V14.01,2013-06-14 08:35:00,
2013-06-14 04:40:00,57.7,54.8,29.57,NNE,23,0.0,11.0,90,0.00,,---,0.00,VWS V14.01,2013-06-14 08:40:00,
2013-06-14 04:45:00,57.7,55.1,29.57,North,5,6.0,11.0,91,0.00,,---,0.00,VWS V14.01,2013-06-14 08:45:00,
2013-06-14 04:50:00,57.6,54.7,29.57,ENE,57,4.0,12.0,90,0.00,,---,0.00,VWS V14.01,2013-06-14 08:50:00,
2013-06-14 04:55:00,57.6,54.7,29.58,NNE,20,8.0,12.0,90,0.00,,---,0.00,VWS V14.01,2013-06-14 08:55:00,
2013-06-14 05:00:00,57.6,54.7,29.58,NNE,30,5.0,12.0,90,0.00,,---,0.00,VWS V14.01,2013-06-14 09:00:00,
2013-06-14 05:05:00,57.6,54.7,29.58,NNE,32,3.0,6.0,90,0.00,,---,0.00,VWS V14.01,2013-06-14 09:05:00,
2013-06-14 05:10:00,57.5,54.9,29.59,NW,319,7.0,11.0,91,0.00,,---,0.00,VWS V14.01,2013-06-14 09:10:00,
2013-06-14 05:15:00,57.4,54.8,29.60,ENE,61,4.0,11.0,91,0.00,,---,0.00,VWS V14.01,2013-06-14 09:15:00,
2013-06-14 05:20:00,57.3,54.7,29.60,NNE,26,5.0,11.0,91,0.00,,---,0.00,VWS V14.01,2013-06-14 09:20:00,
2013-06-14 05:25:00,57.3,54.7,29.60,NE,56,0.0,11.0,91,0.00,,---,0.00,VWS V14.01,2013-06-14 09:25:00,
2013-06-14 05:30:00,57.3,54.7,29.60,ENE,60,2.0,11.0,91,0.00,,---,0.00,VWS V14.01,2013-06-14 09:30:00,
2013-06-14 05:35:00,57.3,54.7,29.60,NNW,336,6.0,12.0,91,0.00,,---,0.00,VWS V14.01,2013-06-14 09:35:00,
2013-06-14 05:40:00,57.3,54.7,29.61,NE,38,4.0,12.0,91,0.00,,---,0.00,VWS V14.01,2013-06-14 09:40:00,
2013-06-14 05:45:00,57.4,55.1,29.61,WNW,284,5.0,14.0,92,0.00,,---,0.00,VWS V14.01,2013-06-14 09:45:00,
2013-06-14 05:50:00,57.2,54.9,29.61,North,360,5.0,14.0,92,0.00,,---,0.00,VWS V14.01,2013-06-14 09:50:00,
2013-06-14 05:55:00,57.1,54.8,29.62,West,259,3.0,14.0,92,0.00,,---,0.00,VWS V14.01,2013-06-14 09:55:00,
2013-06-14 06:00:00,56.9,54.9,29.62,North,351,4.0,14.0,93,0.00,,---,0.00,VWS V14.01,2013-06-14 10:00:00,
2013-06-14 06:05:00,56.7,54.7,29.62,NNW,338,7.0,9.0,93,0.00,,---,0.00,VWS V14.01,2013-06-14 10:05:00,
2013-06-14 06:10:00,56.5,54.5,29.62,NNW,338,2.0,11.0,93,0.00,,---,0.00,VWS V14.01,2013-06-14 10:10:00,
2013-06-14 06:15:00,56.5,54.8,29.62,NW,309,4.0,11.0,94,0.00,,---,0.00,VWS V14.01,2013-06-14 10:15:00,
2013-06-14 06:20:00,56.4,54.7,29.63,NNE,19,2.0,11.0,94,0.00,,---,0.00,VWS V14.01,2013-06-14 10:20:00,
2013-06-14 06:25:00,56.3,54.6,29.63,NW,315,7.0,11.0,94,0.00,,---,0.00,VWS V14.01,2013-06-14 10:25:00,
2013-06-14 06:30:00,56.2,54.5,29.63,North,355,5.0,11.0,94,0.01,,---,0.01,VWS V14.01,2013-06-14 10:30:00,
2013-06-14 06:35:00,56.1,54.4,29.64,North,360,2.0,10.0,94,0.01,,---,0.01,VWS V14.01,2013-06-14 10:35:00,
2013-06-14 06:40:00,56.1,54.4,29.64,North,5,3.0,10.0,94,0.01,,---,0.01,VWS V14.01,2013-06-14 10:40:00,
2013-06-14 06:45:00,56.0,54.3,29.64,North,5,7.0,10.0,94,0.01,,---,0.01,VWS V14.01,2013-06-14 10:45:00,
2013-06-14 06:50:00,56.0,54.6,29.64,NW,318,0.0,10.0,95,0.01,,---,0.01,VWS V14.01,2013-06-14 10:50:00,
2013-06-14 06:55:00,56.0,54.6,29.65,NNE,22,3.0,10.0,95,0.01,,---,0.01,VWS V14.01,2013-06-14 10:55:00,
2013-06-14 07:00:00,56.0,54.3,29.65,NNW,327,3.0,10.0,94,0.01,,---,0.01,VWS V14.01,2013-06-14 11:00:00,
2013-06-14 07:05:00,56.0,54.6,29.65,North,360,6.0,7.0,95,0.01,,---,0.01,VWS V14.01,2013-06-14 11:05:00,
2013-06-14 07:10:00,56.0,54.6,29.65,NW,306,1.0,8.0,95,0.01,,---,0.01,VWS V14.01,2013-06-14 11:10:00,
2013-06-14 07:15:00,56.0,54.6,29.66,NNW,345,3.0,8.0,95,0.01,,---,0.01,VWS V14.01,2013-06-14 11:15:00,
2013-06-14 07:20:00,56.1,54.7,29.66,North,355,4.0,8.0,95,0.01,,---,0.01,VWS V14.01,2013-06-14 11:20:00,
2013-06-14 07:25:00,56.1,54.7,29.66,NNW,336,1.0,8.0,95,0.01,,---,0.01,VWS V14.01,2013-06-14 11:25:00,
2013-06-14 07:30:00,56.2,54.8,29.66,NW,315,4.0,8.0,95,0.01,,---,0.01,VWS V14.01,2013-06-14 11:30:00,
2013-06-14 07:34:00,56.1,54.7,29.66,NNW,340,2.0,9.0,95,0.00,,---,0.01,VWS V14.01,2013-06-14 11:34:00,
2013-06-14 07:39:00,56.0,54.6,29.67,North,10,6.0,9.0,95,0.00,,---,0.01,VWS V14.01,2013-06-14 11:39:00,
2013-06-14 07:44:00,56.0,54.6,29.67,NNE,26,2.0,9.0,95,0.00,,---,0.01,VWS V14.01,2013-06-14 11:44:00,
2013-06-14 07:49:00,56.0,54.6,29.67,ENE,58,2.0,9.0,95,0.00,,---,0.01,VWS V14.01,2013-06-14 11:49:00,
2013-06-14 07:54:00,55.9,54.5,29.67,NW,318,5.0,9.0,95,0.00,,---,0.01,VWS V14.01,2013-06-14 11:54:00,
2013-06-14 07:59:00,55.9,54.5,29.68,NNW,346,6.0,11.0,95,0.01,,---,0.02,VWS V14.01,2013-06-14 11:59:00,
2013-06-14 08:00:00,56.0,54.6,29.65,WSW,249,2.0,10.0,95,0.01,,---,0.01,VWS V14.01,2013-06-14 12:00:00,
2013-06-14 08:04:00,55.8,54.4,29.68,NW,307,4.0,11.0,95,0.01,,---,0.02,VWS V14.01,2013-06-14 12:04:00,
2013-06-14 08:09:00,55.8,54.4,29.69,WNW,299,3.0,11.0,95,0.01,,---,0.02,VWS V14.01,2013-06-14 12:09:00,
2013-06-14 08:14:00,55.8,54.4,29.69,North,355,6.0,11.0,95,0.01,,---,0.02,VWS V14.01,2013-06-14 12:14:00,
2013-06-14 08:19:00,55.8,54.4,29.69,North,355,6.0,11.0,95,0.01,,---,0.02,VWS V14.01,2013-06-14 12:19:00,
2013-06-14 08:24:00,55.8,54.4,29.70,WNW,298,4.0,11.0,95,0.01,,---,0.02,VWS V14.01,2013-06-14 12:24:00,
2013-06-14 08:29:00,55.7,54.3,29.70,West,263,5.0,11.0,95,0.01,,---,0.02,VWS V14.01,2013-06-14 12:29:00,
2013-06-14 08:30:00,56.2,54.8,29.66,NNW,332,0.0,8.0,95,0.01,,---,0.01,VWS V14.01,2013-06-14 12:30:00,
2013-06-14 08:34:00,55.7,54.3,29.70,NW,323,7.0,8.0,95,0.01,,---,0.02,VWS V14.01,2013-06-14 12:34:00,
2013-06-14 08:39:00,55.7,54.3,29.71,WNW,302,7.0,9.0,95,0.01,,---,0.02,VWS V14.01,2013-06-14 12:39:00,
2013-06-14 08:44:00,55.7,54.3,29.71,NNW,330,3.0,9.0,95,0.02,,---,0.03,VWS V14.01,2013-06-14 12:44:00,
2013-06-14 08:49:00,55.7,54.3,29.72,NNW,331,5.0,9.0,95,0.02,,---,0.03,VWS V14.01,2013-06-14 12:49:00,
2013-06-14 08:54:00,55.6,54.2,29.72,North,5,7.0,9.0,95,0.02,,---,0.03,VWS V14.01,2013-06-14 12:54:00,
2013-06-14 08:59:00,55.6,54.2,29.72,North,11,2.0,9.0,95,0.02,,---,0.03,VWS V14.01,2013-06-14 12:59:00,
2013-06-14 09:00:00,55.8,54.4,29.68,North,360,1.0,11.0,95,0.01,,---,0.02,VWS V14.01,2013-06-14 13:00:00,
2013-06-14 09:04:00,55.6,54.2,29.72,NNE,13,0.0,5.0,95,0.01,,---,0.03,VWS V14.01,2013-06-14 13:04:00,
2013-06-14 09:09:00,55.7,54.3,29.73,NNW,328,9.0,9.0,95,0.01,,---,0.03,VWS V14.01,2013-06-14 13:09:00,
2013-06-14 09:14:00,55.7,54.3,29.73,NE,39,2.0,11.0,95,0.01,,---,0.03,VWS V14.01,2013-06-14 13:14:00,
2013-06-14 09:19:00,55.8,54.4,29.73,NNW,336,7.0,11.0,95,0.02,,---,0.04,VWS V14.01,2013-06-14 13:19:00,
2013-06-14 09:24:00,55.7,54.3,29.73,NNE,19,6.0,12.0,95,0.02,,---,0.04,VWS V14.01,2013-06-14 13:24:00,
2013-06-14 09:29:00,55.7,54.3,29.74,NW,323,2.0,12.0,95,0.02,,---,0.04,VWS V14.01,2013-06-14 13:29:00,
2013-06-14 09:30:00,55.7,54.3,29.70,NNW,348,3.0,11.0,95,0.01,,---,0.02,VWS V14.01,2013-06-14 13:30:00,
2013-06-14 09:34:00,55.8,54.4,29.74,NW,319,11.0,11.0,95,0.02,,---,0.04,VWS V14.01,2013-06-14 13:34:00,
2013-06-14 09:39:00,56.0,54.9,29.74,NW,306,1.0,11.0,96,0.02,,---,0.04,VWS V14.01,2013-06-14 13:39:00,
2013-06-14 09:44:00,56.1,55.0,29.74,WNW,298,5.0,11.0,96,0.02,,---,0.04,VWS V14.01,2013-06-14 13:44:00,
2013-06-14 09:49:00,56.2,54.8,29.75,ENE,59,1.0,11.0,95,0.03,,---,0.05,VWS V14.01,2013-06-14 13:49:00,
2013-06-14 09:54:00,56.3,54.9,29.75,NNW,327,1.0,11.0,95,0.03,,---,0.05,VWS V14.01,2013-06-14 13:54:00,
2013-06-14 09:59:00,56.3,54.9,29.75,NW,317,3.0,12.0,95,0.03,,---,0.05,VWS V14.01,2013-06-14 13:59:00,
2013-06-14 10:00:00,55.5,54.1,29.72,NNW,346,3.0,9.0,95,0.02,,---,0.03,VWS V14.01,2013-06-14 14:00:00,
2013-06-14 10:04:00,56.5,55.1,29.76,NNW,344,4.0,9.0,95,0.02,,---,0.05,VWS V14.01,2013-06-14 14:04:00,
2013-06-14 10:09:00,56.5,55.1,29.76,NE,42,0.0,11.0,95,0.02,,---,0.05,VWS V14.01,2013-06-14 14:09:00,
2013-06-14 10:14:00,56.6,55.2,29.76,NNW,348,7.0,12.0,95,0.02,,---,0.05,VWS V14.01,2013-06-14 14:14:00,
2013-06-14 10:19:00,56.5,55.1,29.76,NNE,31,8.0,12.0,95,0.02,,---,0.05,VWS V14.01,2013-06-14 14:19:00,
2013-06-14 10:24:00,57.0,55.9,29.76,North,360,11.0,12.0,96,0.02,,---,0.05,VWS V14.01,2013-06-14 14:24:00,
2013-06-14 10:29:00,57.6,56.5,29.76,NNW,344,2.0,12.0,96,0.02,,---,0.05,VWS V14.01,2013-06-14 14:29:00,
2013-06-14 10:30:00,55.7,54.3,29.74,ESE,121,2.0,12.0,95,0.02,,---,0.04,VWS V14.01,2013-06-14 14:30:00,
2013-06-14 10:34:00,57.8,56.7,29.76,NNE,29,6.0,12.0,96,0.01,,---,0.05,VWS V14.01,2013-06-14 14:34:00,
2013-06-14 10:39:00,57.9,56.5,29.77,NNE,12,9.0,15.0,95,0.01,,---,0.05,VWS V14.01,2013-06-14 14:39:00,
2013-06-14 10:44:00,57.8,56.1,29.77,NNW,336,5.0,15.0,94,0.01,,---,0.05,VWS V14.01,2013-06-14 14:44:00,
2013-06-14 10:49:00,58.0,56.3,29.77,NNE,33,4.0,15.0,94,0.01,,---,0.05,VWS V14.01,2013-06-14 14:49:00,
2013-06-14 10:54:00,58.4,57.0,29.77,NW,316,8.0,15.0,95,0.01,,---,0.05,VWS V14.01,2013-06-14 14:54:00,
2013-06-14 10:59:00,58.4,56.7,29.77,North,355,9.0,15.0,94,0.01,,---,0.05,VWS V14.01,2013-06-14 14:59:00,
2013-06-14 11:00:00,56.4,55.0,29.75,NNW,342,3.0,12.0,95,0.03,,---,0.05,VWS V14.01,2013-06-14 15:00:00,
2013-06-14 11:04:00,58.3,56.3,29.78,North,11,5.0,12.0,93,0.00,,---,0.05,VWS V14.01,2013-06-14 15:04:00,
2013-06-14 11:09:00,58.1,56.1,29.78,North,360,4.0,12.0,93,0.00,,---,0.05,VWS V14.01,2013-06-14 15:09:00,
2013-06-14 11:14:00,58.0,56.0,29.78,North,355,4.0,12.0,93,0.00,,---,0.05,VWS V14.01,2013-06-14 15:14:00,
2013-06-14 11:19:00,58.0,56.3,29.78,North,355,8.0,12.0,94,0.00,,---,0.05,VWS V14.01,2013-06-14 15:19:00,
2013-06-14 11:24:00,57.8,55.8,29.79,NE,54,5.0,12.0,93,0.00,,---,0.05,VWS V14.01,2013-06-14 15:24:00,
2013-06-14 11:29:00,57.7,55.7,29.79,NNW,342,9.0,12.0,93,0.00,,---,0.05,VWS V14.01,2013-06-14 15:29:00,
2013-06-14 11:30:00,57.7,56.6,29.76,North,5,1.0,12.0,96,0.02,,---,0.05,VWS V14.01,2013-06-14 15:30:00,
2013-06-14 11:34:00,57.7,56.0,29.79,NE,40,6.0,11.0,94,0.00,,---,0.05,VWS V14.01,2013-06-14 15:34:00,
2013-06-14 11:39:00,57.8,56.1,29.79,NNE,19,4.0,12.0,94,0.00,,---,0.05,VWS V14.01,2013-06-14 15:39:00,
2013-06-14 11:44:00,58.0,56.3,29.80,ENE,64,5.0,12.0,94,0.00,,---,0.05,VWS V14.01,2013-06-14 15:44:00,
2013-06-14 11:49:00,58.2,56.5,29.80,NW,311,4.0,12.0,94,0.00,,---,0.05,VWS V14.01,2013-06-14 15:49:00,
2013-06-14 11:54:00,58.2,56.5,29.79,NNE,30,7.0,12.0,94,0.00,,---,0.05,VWS V14.01,2013-06-14 15:54:00,
2013-06-14 11:59:00,58.5,56.8,29.79,NW,311,5.0,12.0,94,0.00,,---,0.05,VWS V14.01,2013-06-14 15:59:00,
2013-06-14 12:00:00,58.3,56.3,29.78,NE,40,6.0,15.0,93,0.01,,---,0.05,VWS V14.01,2013-06-14 16:00:00,
2013-06-14 12:04:00,59.0,57.0,29.79,NNW,340,3.0,9.0,93,0.00,,---,0.05,VWS V14.01,2013-06-14 16:04:00,
2013-06-14 12:09:00,59.4,57.1,29.79,NE,40,0.0,9.0,92,0.00,,---,0.05,VWS V14.01,2013-06-14 16:09:00,
2013-06-14 12:14:00,59.8,57.5,29.79,North,350,6.0,10.0,92,0.00,,---,0.05,VWS V14.01,2013-06-14 16:14:00,
2013-06-14 12:19:00,60.0,57.4,29.79,North,355,10.0,10.0,91,0.00,,---,0.05,VWS V14.01,2013-06-14 16:19:00,
2013-06-14 12:24:00,60.3,57.0,29.79,NW,317,2.0,12.0,89,0.00,,---,0.05,VWS V14.01,2013-06-14 16:24:00,
2013-06-14 12:29:00,60.8,57.5,29.79,NNE,28,3.0,12.0,89,0.00,,---,0.05,VWS V14.01,2013-06-14 16:29:00,
2013-06-14 12:30:00,57.7,56.0,29.79,NNW,342,6.0,12.0,94,0.00,,---,0.05,VWS V14.01,2013-06-14 16:30:00,
2013-06-14 12:34:00,61.1,57.5,29.79,North,10,5.0,9.0,88,0.00,,---,0.05,VWS V14.01,2013-06-14 16:34:00,
2013-06-14 12:39:00,61.7,57.8,29.78,North,350,2.0,13.0,87,0.00,,---,0.05,VWS V14.01,2013-06-14 16:39:00,
2013-06-14 12:44:00,62.5,58.3,29.78,WNW,303,0.0,13.0,86,0.00,,---,0.05,VWS V14.01,2013-06-14 16:44:00,
2013-06-14 12:49:00,62.9,57.7,29.79,NE,46,5.0,13.0,83,0.00,,---,0.05,VWS V14.01,2013-06-14 16:49:00,
2013-06-14 12:54:00,63.2,58.6,29.79,NNE,13,11.0,13.0,85,0.00,,---,0.05,VWS V14.01,2013-06-14 16:54:00,
2013-06-14 12:59:00,63.7,58.8,29.79,ENE,61,2.0,13.0,84,0.00,,---,0.05,VWS V14.01,2013-06-14 16:59:00,
2013-06-14 13:00:00,58.6,56.9,29.79,NE,34,9.0,12.0,94,0.00,,---,0.05,VWS V14.01,2013-06-14 17:00:00,
2013-06-14 13:04:00,64.3,59.0,29.79,North,5,8.0,12.0,83,0.01,,---,0.06,VWS V14.01,2013-06-14 17:04:00,
2013-06-14 13:09:00,64.7,59.4,29.80,NW,325,7.0,12.0,83,0.01,,---,0.06,VWS V14.01,2013-06-14 17:09:00,
2013-06-14 13:14:00,64.7,58.7,29.80,WNW,294,4.0,12.0,81,0.01,,---,0.06,VWS V14.01,2013-06-14 17:14:00,
2013-06-14 13:19:00,64.6,58.3,29.80,WSW,258,2.0,12.0,80,0.01,,---,0.06,VWS V14.01,2013-06-14 17:19:00,
2013-06-14 13:24:00,64.7,59.1,29.81,West,265,1.0,12.0,82,0.01,,---,0.06,VWS V14.01,2013-06-14 17:24:00,
2013-06-14 13:29:00,65.1,58.4,29.81,NW,311,6.0,12.0,79,0.01,,---,0.06,VWS V14.01,2013-06-14 17:29:00,
2013-06-14 13:30:00,60.9,57.6,29.79,NE,37,6.0,12.0,89,0.00,,---,0.05,VWS V14.01,2013-06-14 17:30:00,
2013-06-14 13:34:00,65.4,58.0,29.81,NNW,329,5.0,12.0,77,0.01,,---,0.06,VWS V14.01,2013-06-14 17:34:00,
2013-06-14 13:39:00,66.1,58.7,29.81,NW,317,3.0,12.0,77,0.01,,---,0.06,VWS V14.01,2013-06-14 17:39:00,
2013-06-14 13:44:00,66.5,58.0,29.81,NNE,28,1.0,12.0,74,0.01,,---,0.06,VWS V14.01,2013-06-14 17:44:00,
2013-06-14 13:49:00,66.2,56.9,29.81,NNW,342,1.0,12.0,72,0.01,,---,0.06,VWS V14.01,2013-06-14 17:49:00,
2013-06-14 13:54:00,66.1,57.2,29.82,North,360,7.0,12.0,73,0.01,,---,0.06,VWS V14.01,2013-06-14 17:54:00,
2013-06-14 13:59:00,65.8,56.2,29.81,North,5,1.0,12.0,71,0.01,,---,0.06,VWS V14.01,2013-06-14 17:59:00,
2013-06-14 14:00:00,63.9,59.0,29.79,NW,322,8.0,13.0,84,0.00,,---,0.05,VWS V14.01,2013-06-14 18:00:00,
2013-06-14 14:03:00,65.9,56.2,29.81,WNW,300,6.0,12.0,71,0.01,,---,0.06,VWS V14.01,2013-06-14 18:03:00,
2013-06-14 14:08:00,65.8,56.5,29.81,WNW,285,3.0,12.0,72,0.01,,---,0.06,VWS V14.01,2013-06-14 18:08:00,
2013-06-14 14:13:00,65.8,56.9,29.82,WNW,291,3.0,12.0,73,0.01,,---,0.06,VWS V14.01,2013-06-14 18:13:00,
2013-06-14 14:18:00,65.4,57.3,29.82,NE,52,5.0,12.0,75,0.01,,---,0.06,VWS V14.01,2013-06-14 18:18:00,
2013-06-14 14:23:00,65.2,56.7,29.83,NE,36,5.0,12.0,74,0.01,,---,0.06,VWS V14.01,2013-06-14 18:23:00,
2013-06-14 14:28:00,65.2,56.7,29.83,NNW,348,4.0,12.0,74,0.01,,---,0.06,VWS V14.01,2013-06-14 18:28:00,
2013-06-14 14:30:00,65.2,58.2,29.81,NNW,347,9.0,12.0,78,0.01,,---,0.06,VWS V14.01,2013-06-14 18:30:00,
2013-06-14 14:33:00,65.0,55.8,29.83,North,349,2.0,6.0,72,0.00,,---,0.06,VWS V14.01,2013-06-14 18:33:00,
2013-06-14 14:38:00,64.8,57.1,29.83,West,264,1.0,6.0,76,0.00,,---,0.06,VWS V14.01,2013-06-14 18:38:00,
2013-06-14 14:43:00,64.6,56.1,29.83,North,5,1.0,7.0,74,0.00,,---,0.06,VWS V14.01,2013-06-14 18:43:00,
2013-06-14 14:48:00,64.6,55.8,29.83,WNW,303,3.0,7.0,73,0.00,,---,0.06,VWS V14.01,2013-06-14 18:48:00,
2013-06-14 14:53:00,64.5,55.7,29.83,WNW,303,4.0,7.0,73,0.00,,---,0.06,VWS V14.01,2013-06-14 18:53:00,
2013-06-14 14:58:00,64.7,56.2,29.83,North,350,0.0,7.0,74,0.00,,---,0.06,VWS V14.01,2013-06-14 18:58:00,
2013-06-14 15:00:00,65.8,56.9,29.81,NNE,30,3.0,12.0,73,0.01,,---,0.06,VWS V14.01,2013-06-14 19:00:00,
2013-06-14 15:03:00,65.5,58.1,29.83,NNW,332,3.0,5.0,77,0.00,,---,0.06,VWS V14.01,2013-06-14 19:03:00,
2013-06-14 15:08:00,66.2,56.9,29.83,WNW,292,5.0,6.0,72,0.00,,---,0.06,VWS V14.01,2013-06-14 19:08:00,
2013-06-14 15:13:00,66.7,57.0,29.83,West,267,4.0,6.0,71,0.00,,---,0.06,VWS V14.01,2013-06-14 19:13:00,
2013-06-14 15:18:00,67.2,55.0,29.82,North,355,1.0,6.0,65,0.00,,---,0.06,VWS V14.01,2013-06-14 19:18:00,
2013-06-14 15:23:00,67.7,56.0,29.82,NE,53,0.0,7.0,66,0.00,,---,0.06,VWS V14.01,2013-06-14 19:23:00,
2013-06-14 15:28:00,68.2,56.0,29.82,North,5,2.0,7.0,65,0.00,,---,0.06,VWS V14.01,2013-06-14 19:28:00,
2013-06-14 15:30:00,65.1,55.9,29.83,WNW,302,2.0,12.0,72,0.01,,---,0.06,VWS V14.01,2013-06-14 19:30:00,
2013-06-14 15:33:00,68.5,56.3,29.82,WSW,256,0.0,6.0,65,0.00,,---,0.06,VWS V14.01,2013-06-14 19:33:00,
2013-06-14 15:38:00,68.8,56.6,29.82,WNW,293,3.0,10.0,65,0.00,,---,0.06,VWS V14.01,2013-06-14 19:38:00,
2013-06-14 15:43:00,69.0,56.8,29.81,NW,313,4.0,10.0,65,0.00,,---,0.06,VWS V14.01,2013-06-14 19:43:00,
2013-06-14 15:48:00,69.4,57.1,29.81,NNW,342,0.0,10.0,65,0.00,,---,0.06,VWS V14.01,2013-06-14 19:48:00,
2013-06-14 15:53:00,69.7,56.6,29.81,WNW,285,5.0,10.0,63,0.00,,---,0.06,VWS V14.01,2013-06-14 19:53:00,
2013-06-14 15:58:00,70.0,57.7,29.81,NW,322,0.0,10.0,65,0.00,,---,0.06,VWS V14.01,2013-06-14 19:58:00,
2013-06-14 16:00:00,64.8,56.3,29.83,NNE,27,3.0,7.0,74,0.00,,---,0.06,VWS V14.01,2013-06-14 20:00:00,
2013-06-14 16:03:00,70.0,58.1,29.81,West,261,4.0,6.0,66,0.00,,---,0.06,VWS V14.01,2013-06-14 20:03:00,
2013-06-14 16:08:00,70.0,57.3,29.81,NNW,338,0.0,6.0,64,0.00,,---,0.06,VWS V14.01,2013-06-14 20:08:00,
2013-06-14 16:13:00,70.1,58.7,29.81,WNW,290,1.0,6.0,67,0.00,,---,0.06,VWS V14.01,2013-06-14 20:13:00,
2013-06-14 16:18:00,70.1,58.7,29.81,WSW,240,2.0,6.0,67,0.00,,---,0.06,VWS V14.01,2013-06-14 20:18:00,
2013-06-14 16:23:00,70.5,59.4,29.81,SW,231,4.0,6.0,68,0.00,,---,0.06,VWS V14.01,2013-06-14 20:23:00,
2013-06-14 16:28:00,70.9,61.0,29.81,SW,225,1.0,6.0,71,0.00,,---,0.06,VWS V14.01,2013-06-14 20:28:00,
2013-06-14 16:30:00,68.3,56.5,29.82,NW,320,4.0,7.0,66,0.00,,---,0.06,VWS V14.01,2013-06-14 20:30:00,
2013-06-14 16:33:00,71.0,60.7,29.81,WSW,257,1.0,3.0,70,0.00,,---,0.06,VWS V14.01,2013-06-14 20:33:00,
2013-06-14 16:38:00,71.1,58.8,29.80,West,261,0.0,5.0,65,0.00,,---,0.06,VWS V14.01,2013-06-14 20:38:00,
2013-06-14 16:43:00,71.3,58.5,29.80,WSW,247,2.0,5.0,64,0.00,,---,0.06,VWS V14.01,2013-06-14 20:43:00,
2013-06-14 16:48:00,71.2,59.7,29.80,SW,232,2.0,5.0,67,0.00,,---,0.06,VWS V14.01,2013-06-14 20:48:00,
2013-06-14 16:53:00,71.1,61.6,29.80,SSW,203,1.0,7.0,72,0.00,,---,0.06,VWS V14.01,2013-06-14 20:53:00,
2013-06-14 16:58:00,70.7,60.5,29.80,West,279,1.0,9.0,70,0.00,,---,0.06,VWS V14.01,2013-06-14 20:58:00,
2013-06-14 17:00:00,70.0,58.5,29.81,WNW,298,0.0,10.0,67,0.00,,---,0.06,VWS V14.01,2013-06-14 21:00:00,
2013-06-14 17:03:00,70.5,60.7,29.80,SSW,207,0.0,9.0,71,0.00,,---,0.06,VWS V14.01,2013-06-14 21:03:00,
2013-06-14 17:08:00,70.2,60.0,29.80,West,273,4.0,9.0,70,0.00,,---,0.06,VWS V14.01,2013-06-14 21:08:00,
2013-06-14 17:13:00,70.1,60.3,29.80,SSW,212,2.0,9.0,71,0.00,,---,0.06,VWS V14.01,2013-06-14 21:13:00,
2013-06-14 17:18:00,70.2,60.4,29.80,West,263,1.0,9.0,71,0.00,,---,0.06,VWS V14.01,2013-06-14 21:18:00,
2013-06-14 17:23:00,70.2,60.0,29.80,SW,236,1.0,9.0,70,0.00,,---,0.06,VWS V14.01,2013-06-14 21:23:00,
2013-06-14 17:28:00,70.2,60.8,29.80,WSW,246,1.0,9.0,72,0.00,,---,0.06,VWS V14.01,2013-06-14 21:28:00,
2013-06-14 17:30:00,70.9,59.8,29.80,SSW,200,0.0,6.0,68,0.00,,---,0.06,VWS V14.01,2013-06-14 21:30:00,
2013-06-14 17:33:00,70.2,60.4,29.80,SW,215,1.0,6.0,71,0.00,,---,0.06,VWS V14.01,2013-06-14 21:33:00,
2013-06-14 17:38:00,70.2,60.0,29.80,WSW,252,4.0,9.0,70,0.00,,---,0.06,VWS V14.01,2013-06-14 21:38:00,
2013-06-14 17:43:00,70.0,59.4,29.79,South,170,0.0,9.0,69,0.00,,---,0.06,VWS V14.01,2013-06-14 21:43:00,
2013-06-14 17:48:00,69.8,61.2,29.80,WSW,258,8.0,9.0,74,0.00,,---,0.06,VWS V14.01,2013-06-14 21:48:00,
2013-06-14 17:53:00,69.4,60.0,29.80,SSW,205,0.0,9.0,72,0.00,,---,0.06,VWS V14.01,2013-06-14 21:53:00,
2013-06-14 17:58:00,69.2,60.6,29.79,WSW,244,1.0,9.0,74,0.00,,---,0.06,VWS V14.01,2013-06-14 21:58:00,
2013-06-14 18:00:00,69.1,60.5,29.80,South,190,0.0,9.0,74,0.00,,---,0.06,VWS V15.00,2013-06-14 22:00:00,
2013-06-14 18:03:00,69.0,60.4,29.79,WSW,252,0.0,4.0,74,0.00,,---,0.06,VWS V14.01,2013-06-14 22:03:00,
2013-06-14 18:08:00,69.1,61.2,29.79,SW,231,0.0,6.0,76,0.00,,---,0.06,VWS V14.01,2013-06-14 22:08:00,
2013-06-14 18:13:00,69.2,61.7,29.79,SSW,209,0.0,6.0,77,0.00,,---,0.06,VWS V14.01,2013-06-14 22:13:00,
2013-06-14 18:18:00,69.3,60.7,29.80,WSW,251,1.0,6.0,74,0.00,,---,0.06,VWS V14.01,2013-06-14 22:18:00,
2013-06-14 18:23:00,69.5,61.6,29.80,SSW,196,4.0,6.0,76,0.00,,---,0.06,VWS V14.01,2013-06-14 22:23:00,
2013-06-14 18:28:00,69.4,60.8,29.80,SW,224,2.0,7.0,74,0.00,,---,0.06,VWS V14.01,2013-06-14 22:28:00,
2013-06-14 18:30:00,70.2,60.4,29.80,West,264,3.0,9.0,71,0.00,,---,0.06,VWS V14.01,2013-06-14 22:30:00,
2013-06-14 18:33:00,69.3,61.4,29.80,South,175,0.0,3.0,76,0.00,,---,0.06,VWS V14.01,2013-06-14 22:33:00,
2013-06-14 18:38:00,69.1,60.1,29.80,WSW,244,0.0,5.0,73,0.00,,---,0.06,VWS V14.01,2013-06-14 22:38:00,
2013-06-14 18:43:00,69.0,60.8,29.80,WSW,244,2.0,6.0,75,0.00,,---,0.06,VWS V14.01,2013-06-14 22:43:00,
2013-06-14 18:48:00,68.8,60.9,29.81,West,265,0.0,6.0,76,0.00,,---,0.06,VWS V14.01,2013-06-14 22:48:00,
2013-06-14 18:53:00,68.5,60.3,29.84,NNE,24,6.0,11.0,75,0.00,,---,0.06,VWS V14.01,2013-06-14 22:53:00,
2013-06-14 18:58:00,67.1,59.3,29.84,NNW,337,1.0,25.0,76,0.10,,---,0.16,VWS V14.01,2013-06-14 22:58:00,
2013-06-14 19:00:00,69.1,60.5,29.80,South,190,0.0,9.0,74,0.00,,---,0.06,VWS V14.01,2013-06-14 23:00:00,
2013-06-14 19:03:00,65.1,58.4,29.85,NW,311,2.0,5.0,79,0.15,,---,0.21,VWS V14.01,2013-06-14 23:03:00,
2013-06-14 19:08:00,63.8,58.9,29.84,NNW,328,0.0,8.0,84,0.17,,---,0.23,VWS V14.01,2013-06-14 23:08:00,
2013-06-14 19:13:00,62.9,58.7,29.83,NNW,327,0.0,8.0,86,0.19,,---,0.25,VWS V14.01,2013-06-14 23:13:00,
2013-06-14 19:18:00,62.3,58.4,29.84,NNW,327,0.0,8.0,87,0.19,,---,0.25,VWS V14.01,2013-06-14 23:18:00,
2013-06-14 19:23:00,61.7,58.4,29.84,NNW,327,1.0,8.0,89,0.19,,---,0.25,VWS V14.01,2013-06-14 23:23:00,
2013-06-14 19:28:00,61.4,58.5,29.83,NNW,327,0.0,8.0,90,0.20,,---,0.26,VWS V14.01,2013-06-14 23:28:00,
2013-06-14 19:30:00,69.3,61.0,29.80,SSW,211,0.0,7.0,75,0.00,,---,0.06,VWS V14.01,2013-06-14 23:30:00,
2013-06-14 19:33:00,61.2,58.6,29.83,NNW,327,0.0,0.0,91,0.20,,---,0.26,VWS V14.01,2013-06-14 23:33:00,
2013-06-14 19:38:00,61.1,58.8,29.83,NNW,327,0.0,1.0,92,0.20,,---,0.26,VWS V14.01,2013-06-14 23:38:00,
2013-06-14 19:42:00,61.1,59.1,29.83,SSW,202,0.0,3.0,93,0.20,,---,0.26,VWS V14.01,2013-06-14 23:42:00,
2013-06-14 19:47:00,61.1,59.1,29.82,SW,217,0.0,3.0,93,0.20,,---,0.26,VWS V14.01,2013-06-14 23:47:00,
2013-06-14 19:52:00,61.1,59.1,29.82,SW,217,0.0,3.0,93,0.20,,---,0.26,VWS V14.01,2013-06-14 23:52:00,
2013-06-14 19:57:00,61.0,59.0,29.82,SSW,209,1.0,3.0,93,0.20,,---,0.26,VWS V14.01,2013-06-14 23:57:00,
2013-06-14 20:00:00,66.1,59.0,29.85,WSW,241,2.0,25.0,78,0.14,,---,0.20,VWS V14.01,2013-06-15 00:00:00,
2013-06-14 20:02:00,60.9,59.2,29.83,SW,218,0.0,3.0,94,0.06,,---,0.26,VWS V14.01,2013-06-15 00:02:00,
2013-06-14 20:07:00,60.8,59.1,29.83,West,263,0.0,3.0,94,0.06,,---,0.26,VWS V14.01,2013-06-15 00:07:00,
2013-06-14 20:12:00,60.7,59.0,29.83,WNW,286,0.0,3.0,94,0.06,,---,0.26,VWS V14.01,2013-06-15 00:12:00,
2013-06-14 20:17:00,60.7,59.0,29.85,North,360,3.0,4.0,94,0.06,,---,0.26,VWS V14.01,2013-06-15 00:17:00,
2013-06-14 20:22:00,60.8,59.4,29.85,North,360,1.0,4.0,95,0.06,,---,0.26,VWS V14.01,2013-06-15 00:22:00,
2013-06-14 20:27:00,60.9,59.5,29.86,NNE,15,2.0,4.0,95,0.06,,---,0.26,VWS V14.01,2013-06-15 00:27:00,
2013-06-14 20:30:00,61.3,58.7,29.83,NNW,327,0.0,8.0,91,0.20,,---,0.26,VWS V14.01,2013-06-15 00:30:00,
2013-06-14 20:32:00,60.9,59.5,29.85,NNE,15,0.0,4.0,95,0.01,,---,0.27,VWS V14.01,2013-06-15 00:32:00,
2013-06-14 20:37:00,60.9,59.5,29.85,NNE,15,0.0,4.0,95,0.02,,---,0.28,VWS V14.01,2013-06-15 00:37:00,
2013-06-14 20:42:00,60.9,59.5,29.86,NNE,15,0.0,4.0,95,0.02,,---,0.28,VWS V14.01,2013-06-15 00:42:00,
2013-06-14 20:47:00,60.9,59.5,29.86,NNE,13,0.0,4.0,95,0.02,,---,0.28,VWS V14.01,2013-06-15 00:47:00,
2013-06-14 20:52:00,60.9,59.5,29.86,North,11,0.0,4.0,95,0.02,,---,0.28,VWS V14.01,2013-06-15 00:52:00,
2013-06-14 20:57:00,60.9,59.5,29.85,West,281,2.0,4.0,95,0.03,,---,0.29,VWS V14.01,2013-06-15 00:57:00,
2013-06-14 21:00:00,60.9,58.9,29.82,SW,215,0.0,3.0,93,0.20,,---,0.26,VWS V14.01,2013-06-15 01:00:00,
2013-06-14 21:02:00,60.9,59.5,29.85,West,281,0.0,1.0,95,0.03,,---,0.29,VWS V14.01,2013-06-15 01:02:00,
2013-06-14 21:07:00,60.8,59.4,29.85,West,281,0.0,1.0,95,0.03,,---,0.29,VWS V14.01,2013-06-15 01:07:00,
2013-06-14 21:12:00,60.8,59.4,29.85,West,281,0.0,2.0,95,0.03,,---,0.29,VWS V14.01,2013-06-15 01:12:00,
2013-06-14 21:17:00,60.7,59.3,29.85,West,281,0.0,2.0,95,0.03,,---,0.29,VWS V14.01,2013-06-15 01:17:00,
2013-06-14 21:22:00,60.5,59.1,29.86,West,281,0.0,2.0,95,0.03,,---,0.29,VWS V14.01,2013-06-15 01:22:00,
2013-06-14 21:27:00,60.4,59.0,29.86,West,281,0.0,2.0,95,0.03,,---,0.29,VWS V14.01,2013-06-15 01:27:00,
2013-06-14 21:30:00,60.9,59.5,29.86,NNE,15,2.0,4.0,95,0.06,,---,0.26,VWS V14.01,2013-06-15 01:30:00,
2013-06-14 21:32:00,60.2,58.8,29.86,West,281,0.0,1.0,95,0.03,,---,0.29,VWS V14.01,2013-06-15 01:32:00,
2013-06-14 21:37:00,60.1,58.7,29.86,West,281,0.0,1.0,95,0.03,,---,0.29,VWS V14.01,2013-06-15 01:37:00,
2013-06-14 21:42:00,60.0,58.6,29.86,West,281,0.0,1.0,95,0.03,,---,0.29,VWS V14.01,2013-06-15 01:42:00,
2013-06-14 21:47:00,60.0,58.6,29.86,West,281,0.0,1.0,95,0.03,,---,0.29,VWS V14.01,2013-06-15 01:47:00,
2013-06-14 21:52:00,59.9,58.5,29.86,West,281,0.0,1.0,95,0.03,,---,0.29,VWS V14.01,2013-06-15 01:52:00,
2013-06-14 21:57:00,59.8,58.7,29.87,West,281,0.0,1.0,96,0.03,,---,0.29,VWS V14.01,2013-06-15 01:57:00,
2013-06-14 22:00:00,60.9,59.5,29.85,West,281,0.0,4.0,95,0.03,,---,0.29,VWS V14.01,2013-06-15 02:00:00,
2013-06-14 22:02:00,59.8,58.7,29.86,West,281,0.0,0.0,96,0.00,,---,0.29,VWS V14.01,2013-06-15 02:02:00,
2013-06-14 22:07:00,59.7,58.6,29.86,West,275,0.0,2.0,96,0.00,,---,0.29,VWS V14.01,2013-06-15 02:07:00,
2013-06-14 22:12:00,59.7,58.6,29.87,West,275,0.0,2.0,96,0.00,,---,0.29,VWS V14.01,2013-06-15 02:12:00,
2013-06-14 22:17:00,59.8,58.7,29.87,West,275,0.0,2.0,96,0.00,,---,0.29,VWS V14.01,2013-06-15 02:17:00,
2013-06-14 22:22:00,59.8,58.7,29.87,West,275,0.0,2.0,96,0.00,,---,0.29,VWS V14.01,2013-06-15 02:22:00,
2013-06-14 22:27:00,59.8,58.7,29.88,West,275,0.0,2.0,96,0.00,,---,0.29,VWS V14.01,2013-06-15 02:27:00,
2013-06-14 22:30:00,60.3,58.9,29.86,West,281,0.0,2.0,95,0.03,,---,0.29,VWS V14.01,2013-06-15 02:30:00,
2013-06-14 22:32:00,60.0,58.9,29.88,West,275,0.0,0.0,96,0.00,,---,0.29,VWS V14.01,2013-06-15 02:32:00,
2013-06-14 22:37:00,60.0,58.9,29.88,West,275,0.0,1.0,96,0.00,,---,0.29,VWS V14.01,2013-06-15 02:37:00,
2013-06-14 22:42:00,60.0,58.9,29.88,West,276,0.0,2.0,96,0.00,,---,0.29,VWS V14.01,2013-06-15 02:42:00,
2013-06-14 22:47:00,60.0,58.9,29.89,West,277,0.0,2.0,96,0.00,,---,0.29,VWS V14.01,2013-06-15 02:47:00,
2013-06-14 22:52:00,60.0,58.9,29.89,West,275,0.0,3.0,96,0.00,,---,0.29,VWS V14.01,2013-06-15 02:52:00,
2013-06-14 22:57:00,60.1,59.0,29.89,WNW,282,2.0,3.0,96,0.00,,---,0.29,VWS V14.01,2013-06-15 02:57:00,
2013-06-14 23:00:00,59.8,58.7,29.87,West,281,0.0,1.0,96,0.03,,---,0.29,VWS V14.01,2013-06-15 03:00:00,
2013-06-14 23:02:00,60.1,59.0,29.89,WSW,253,0.0,3.0,96,0.00,,---,0.29,VWS V14.01,2013-06-15 03:02:00,
2013-06-14 23:07:00,60.2,59.1,29.89,WNW,303,0.0,4.0,96,0.00,,---,0.29,VWS V14.01,2013-06-15 03:07:00,
2013-06-14 23:12:00,60.2,59.1,29.89,WSW,237,0.0,4.0,96,0.00,,---,0.29,VWS V14.01,2013-06-15 03:12:00,
2013-06-14 23:17:00,60.2,59.1,29.89,WSW,237,0.0,4.0,96,0.00,,---,0.29,VWS V14.01,2013-06-15 03:17:00,
2013-06-14 23:22:00,60.2,59.1,29.89,WSW,238,0.0,4.0,96,0.00,,---,0.29,VWS V14.01,2013-06-15 03:22:00,
2013-06-14 23:27:00,60.2,59.1,29.90,WSW,256,3.0,4.0,96,0.00,,---,0.29,VWS V14.01,2013-06-15 03:27:00,
2013-06-14 23:30:00,59.9,58.8,29.88,West,275,0.0,2.0,96,0.00,,---,0.29,VWS V14.01,2013-06-15 03:30:00,
2013-06-14 23:32:00,60.2,59.1,29.90,WSW,258,0.0,2.0,96,0.00,,---,0.29,VWS V14.01,2013-06-15 03:32:00,
2013-06-14 23:37:00,60.1,59.0,29.90,WSW,258,0.0,2.0,96,0.00,,---,0.29,VWS V14.01,2013-06-15 03:37:00,
2013-06-14 23:42:00,60.1,59.0,29.90,WSW,258,0.0,2.0,96,0.00,,---,0.29,VWS V14.01,2013-06-15 03:42:00,
2013-06-14 23:47:00,60.1,59.0,29.90,WSW,258,0.0,2.0,96,0.00,,---,0.29,VWS V14.01,2013-06-15 03:47:00,
2013-06-14 23:52:00,60.1,59.0,29.90,WNW,289,0.0,3.0,96,0.00,,---,0.29,VWS V14.01,2013-06-15 03:52:00,
2013-06-14 23:57:00,60.1,59.0,29.90,WNW,293,1.0,4.0,96,0.00,,---,0.29,VWS V14.01,2013-06-15 03:57:00,